sat.trackr.live / text

‹ back to catalog

STARLINK-34878

NORAD 65334 · 2025-189M

PAYLOAD ACTIVE UNKNOWN

§ Identity

Operator
Country
US
Launch date
2025-08-27
Launch site
AFETR
Launch vehicle
Mass (kg)
RCS (m²)

Purposes: comms

External: N2YO · Heavens-Above · Gunter

§ Orbital elements

Epoch: 2026-09-20T18:47:08.793888Z

Period
94.01 min
Inclination
53.1601°
Eccentricity
0.0001233
Mean motion
15.31721428 rev/d
Perigee alt
469.8 km
Apogee alt
471.5 km
Semi-major
6,848.8 km
B*
2.8042e-4
RAAN
19.3388°
Arg perigee
67.8477°
Mean anomaly
292.2656°
Rev number
6,099

§ Raw data

STARLINK-348781 65334U 25189M   26263.78274067  .00008352  00000+0  28042-3 0  99922 65334  53.1601  19.3388 0001233  67.8477 292.2656 15.31721428 60999

JSON: /api/v1/satellites/65334 · /tle

For live sub-satellite position, see the globe view (requires WebGL).

§ Visibility from observer

Set your observer location to see the next 7 days of passes ≥ 10°. The values pass through the URL so the page stays shareable.

No JS? Fill the form by hand. The geolocation button needs JavaScript.